Regional Weather Roundup
Issued by NWS

Home | Current Version | Previous Version | Text Only | Print | Product List | Glossary On
Versions: 1 2 3 4 5 6 7 8 9 10 11 12 13 14 15 16 17 18 19 20 21 22 23 24 25 26 27 28 29 30 31 32 33 34 35 36 37 38 39 40 41 42 43 44 45 46 47 48 49 50
000
ASUS43 KDMX 241601
RWRIA

WEATHER ROUNDUP FOR IOWA
NATIONAL WEATHER SERVICE DES MOINES IA
1000 AM CST FRI NOV 24 2017

NOTE: "FAIR" INDICATES FEW OR NO CLOUDS BELOW 12,000 FEET WITH NO
SIGNIFICANT WEATHER AND/OR OBSTRUCTIONS TO VISIBILITY.

* - THESE STATIONS ARE NOT NWS STATIONS...THUS NOT UNDER NWS
QUALITY CONTROL.  THEY ALSO DO NOT REPORT WEATHER SUCH
AS PRECIPITATION OR FOG.

IAZ001>003-012>014-020>022-031>034-043>046-241700-
   NORTHWEST IOWA

CITY           SKY/WX    TMP DP  RH WIND       PRES   REMARKS
CARROLL *      SUNNY     55  41  58 SW22G29   29.44F
CHEROKEE *     SUNNY     53  42  67 SW6       29.43F
DENISON *      SUNNY     57  41  54 SW12G18   29.47F
LE MARS *      SUNNY     50  41  71 SW6       29.43F
ORANGE CITY *  SUNNY     50  45  81 W9        29.43S
SHELDON *      SUNNY     50  41  71 W12       29.41S
SIOUX CITY     SUNNY     51  41  68 CALM      29.45F
SPENCER        SUNNY     52  40  63 W10       29.42S
STORM LAKE *   SUNNY     54  41  62 W16G22    29.43S
$$

IAZ055>058-069>071-079>083-090>094-241700-
   SOUTHWEST IOWA

CITY           SKY/WX    TMP DP  RH WIND       PRES   REMARKS
ATLANTIC *     SUNNY     57  41  54 SW18      29.50F
AUDUBON *      SUNNY     57  43  58 SW15G23   29.48S
CLARINDA *     SUNNY     59  41  51 SW16G22     N/A
COUNCIL BLFS * SUNNY     57  43  58 SW10      29.50S
CRESTON *      SUNNY     59  39  47 SW21G28   29.53F
HARLAN  *      SUNNY     55  43  62 SW18      29.51F
LAMONI         SUNNY     59  38  45 SW23      29.56F
RED OAK *      SUNNY     59  41  51 SW16      29.52F
SHENANDOAH *   SUNNY     59  41  51 SW17      29.54F
$$

IAZ047>049-059>061-072>074-084-241700-
   CENTRAL IOWA

CITY           SKY/WX    TMP DP  RH WIND       PRES   REMARKS
AMES           SUNNY     58  41  53 SW20G29   29.47F
ANKENY *       SUNNY     59  39  47 SW13G22   29.49F
BOONE *        SUNNY     57  39  51 SW20G31   29.44F
CHARITON *     SUNNY     59  37  44 S24       29.53F
DES MOINES     MOSUNNY   60  38  43 SW16      29.49F
GRINNELL*      SUNNY     58  38  45 S18G24    29.52F
KNOXVILLE *    SUNNY     59  36  41 SW16G26   29.50F
MARSHALLTOWN   SUNNY     57  39  51 S20G28    29.47F
NEWTON *       SUNNY     59  37  44 SW21G28   29.49F
PELLA *        SUNNY     61  36  39 SW9G25    29.53F
PERRY *          N/A     58  37  45 SW16      29.47F
$$

IAZ004>006-015-016-023>025-035-036-241700-
   NORTH CENTRAL IOWA

CITY           SKY/WX    TMP DP  RH WIND       PRES   REMARKS
ALGONA *       SUNNY     52  43  71 SW20      29.40F
CLARION *      SUNNY     54  43  66 SW20G25   29.42F
ESTHERVILLE    SUNNY     51  41  68 SW15      29.39F
FORT DODGE *   SUNNY     55  41  59 SW17      29.43F
MASON CITY     SUNNY     53  39  59 SW16      29.42F
FOREST CITY *    N/A     52  39  62 SW15      29.40F
WEBSTER CITY * SUNNY     55  39  54 SW18      29.42F
IOWA FALLS *     N/A     55  40  56 S17       29.45F
$$

IAZ007>011-017>019-026>030-037>042-050>054-066-241700-
   NORTHEAST IOWA

CITY           SKY/WX    TMP DP  RH WIND       PRES   REMARKS
CEDAR RAPIDS   SUNNY     58  37  45 S20G26    29.51F
CHARLES CITY * SUNNY     52  37  58 S16       29.44F
CLINTON *      SUNNY     57  37  47 S15       29.60F
DECORAH *      SUNNY     54  37  54 S13G24    29.44F
DUBUQUE        SUNNY     54  36  50 S21       29.52F
MONTICELLO *   SUNNY     55  37  50 S14G21    29.52F
OELWEIN *      SUNNY     55  39  54 S18G25    29.48F
WATERLOO       SUNNY     56  37  49 S16       29.46F
$$

IAZ064-065-067-068-078-241700-
   EAST CENTRAL IOWA

CITY           SKY/WX    TMP DP  RH WIND       PRES   REMARKS
DAVENPORT      SUNNY     54  34  46 S21G29    29.62F
IOWA CITY      SUNNY     58  37  45 S12       29.57F
MT. PLEASANT * SUNNY     56  36  47 S13       29.62F
MUSCATINE *    SUNNY     55  37  50 S14       29.60F
QUAD CITIES    SUNNY     56  34  43 SW17G24   29.60F
$$

IAZ062-063-075>077-085>089-095>099-241700-
   SOUTHEAST IOWA

CITY           SKY/WX    TMP DP  RH WIND       PRES   REMARKS
BURLINGTON     SUNNY     55  38  52 S15       29.64F
FAIRFIELD *    SUNNY     61  36  39 S20       29.57F
FORT MADISON * SUNNY     55  36  47 S16G22    29.64F
KEOKUK *       SUNNY     54  37  54 SW15      29.64F
OSKALOOSA *      N/A     63  37  37 SW24G30   29.53F
OTTUMWA        SUNNY     62  37  39 S15       29.55F
WASHINGTON *   SUNNY     61  37  41 S21       29.57F
$$

ABBREVIATIONS USED IN REMARKS
   TC - TEMPERATURES IN CELSIUS
  WCI - WIND CHILL INDEX
   HX - HEAT INDEX
  VSB - VISIBILITY
$$





USA.gov is the U.S. government's official web portal to all federal, state and local government web resources and services.